Wind_Speed
19 19 18 18 19 17 16 15 15 12 11 10 9 8 7 7 7 7 7 6 6 6 6 5 4 4 4 3 3 3 2 2 2 2 3 5 7 7 7 8 9 9 10 10 11 12 11 11 12
21 20 20 20 20 18 18 17 15 13 12 11 10 8 7 7 7 7 6 6 6 6 6 6 5 4 4 3 2 3 2 3 3 2 3 5 7 8 8 8 10 10 11 11 11 11 10 11 11
20 20 20 21 21 19 19 18 16 15 14 12 11 10 9 8 7 7 6 6 7 6 6 6 5 4 4 3 3 3 3 3 3 3 3 5 7 8 8 8 9 9 11 11 10 11 10 10 11
19 20 21 22 22 20 19 18 17 15 14 14 12 11 10 8 8 7 7 7 7 6 6 6 5 5 4 3 3 3 3 3 3 4 4 5 6 7 7 8 9 9 9 9 10 10 10 10 10
19 20 21 22 21 20 19 19 18 16 15 14 13 12 11 9 9 8 8 7 7 7 6 6 6 5 5 4 3 3 4 4 4 4 4 5 6 6 8 9 9 10 11 11 10 10 10 11 12
18 21 22 21 21 20 19 19 18 16 15 15 14 13 12 10 10 9 8 8 8 7 7 6 6 6 5 5 4 4 5 5 4 4 5 5 5 6 8 9 9 10 11 11 10 10 10 11 13
18 21 22 21 20 19 19 19 19 18 17 16 15 14 12 12 11 10 9 9 8 7 7 7 6 6 6 6 6 6 6 6 5 5 6 6 6 7 9 9 9 10 9 10 11 11 11 12 12
17 20 20 20 19 19 19 19 19 19 18 17 16 16 14 13 12 11 10 9 9 9 8 7 7 7 6 6 6 6 6 6 6 6 6 7 7 8 8 9 8 9 9 9 9 10 11 12 11
17 18 18 18 19 19 19 20 20 20 19 18 17 16 15 14 13 12 12 10 10 9 9 8 7 7 7 6 6 6 7 6 6 6 7 7 7 9 9 8 9 9 8 9 10 9 9 10 10
16 15 16 18 18 19 20 20 20 20 19 19 18 16 16 15 14 13 12 10 10 10 10 9 8 7 6 6 7 7 7 7 7 7 7 7 8 9 9 9 9 9 9 9 9 8 8 9 8
13 13 15 16 17 18 19 20 20 19 19 18 18 17 17 16 15 14 12 11 10 9 10 10 9 8 7 7 7 7 7 8 8 7 8 9 10 9 9 9 9 9 8 8 8 8 8 8 8
11 10 12 14 16 18 19 19 19 18 18 18 18 18 17 16 15 14 14 12 10 10 10 10 10 9 8 8 8 8 8 8 8 8 8 9 9 9 8 8 8 9 8 7 7 8 7 8 8
9 9 11 13 15 17 18 18 18 18 18 19 18 18 17 16 16 15 15 13 11 11 11 10 9 9 9 9 9 9 9 8 9 9 9 9 9 8 8 7 8 8 8 7 7 7 7 6 6
7 8 9 11 13 15 16 17 17 18 18 19 18 18 17 16 16 16 15 14 12 11 11 11 10 9 9 9 9 8 8 9 9 9 8 8 8 8 8 8 7 7 7 7 7 6 6 6 5
6 6 7 9 11 15 15 16 16 17 18 18 18 18 17 16 16 16 16 15 14 12 11 11 10 9 9 9 9 8 8 8 8 8 8 8 7 7 8 8 7 6 6 6 5 5 6 5 5
4 5 4 7 9 12 13 14 15 16 16 17 17 17 17 16 16 16 15 15 14 14 13 12 10 10 9 9 8 8 8 8 8 7 7 7 7 8 8 7 7 6 5 5 5 5 5 5 4
3 2 3 7 8 9 10 12 13 14 14 15 15 16 17 16 16 15 15 15 14 14 13 12 11 10 9 8 8 7 8 8 7 7 6 6 6 7 7 7 6 5 5 4 4 4 4 4 4
4 2 2 6 6 7 8 9 11 11 12 13 14 14 15 15 15 15 15 15 14 13 14 13 12 10 9 8 8 8 7 7 6 6 6 6 5 5 5 5 5 4 4 4 3 3 3 3 3
5 3 3 4 4 5 7 7 9 9 10 11 12 12 13 13 13 14 14 14 14 13 13 13 12 11 10 9 8 8 7 6 6 6 6 6 5 5 5 4 4 3 3 3 2 2 2 2 2
6 4 4 5 6 5 5 7 7 7 8 10 11 11 11 11 11 12 13 13 13 12 12 12 12 11 10 9 9 7 7 6 6 6 6 5 5 5 5 4 3 3 3 3 2 2 2 1 2
7 6 6 6 7 5 5 7 7 5 7 8 9 9 9 9 10 10 11 11 11 12 12 11 11 10 10 9 8 7 6 6 5 5 5 5 5 4 5 4 4 4 4 3 3 2 2 1 1
9 8 8 9 11 8 6 7 6 5 5 6 7 7 8 8 8 9 9 9 10 10 10 11 11 10 10 9 8 7 7 6 5 5 5 5 5 5 6 6 5 5 4 4 3 2 1 0 1
11 11 11 10 11 10 7 8 7 6 5 6 7 6 5 6 7 7 7 7 8 9 9 9 9 9 9 8 8 7 6 6 5 5 5 5 5 5 5 5 5 5 4 4 3 2 2 1 1
14 14 14 12 12 12 9 10 9 7 6 6 6 6 5 5 6 6 6 5 6 6 7 8 8 8 8 7 7 6 6 5 5 4 4 4 4 4 4 4 4 4 3 3 3 3 3 2 2
17 17 17 16 15 14 11 12 11 9 7 5 5 5 4 4 5 5 5 5 4 5 6 6 6 6 6 6 6 5 4 4 4 3 3 3 3 3 2 2 2 2 2 2 2 3 3 3 4
19 19 19 19 18 14 13 13 10 10 8 6 6 5 4 3 4 5 5 5 4 5 4 4 4 4 5 5 4 4 3 3 2 1 1 1 1 1 0 0 1 1 2 2 2 3 4 4 5
22 22 20 20 20 18 16 14 12 11 10 10 10 8 6 5 4 4 5 5 5 5 5 4 5 5 4 4 4 3 3 2 2 1 1 1 1 2 2 3 3 3 3 3 4 4 5 6 6
23 23 22 22 21 21 19 17 15 12 11 11 12 10 7 6 5 5 5 5 6 6 6 5 5 5 5 5 4 3 3 4 3 3 3 3 3 4 4 4 4 4 4 5 6 6 7 7 7
26 25 25 23 22 22 22 19 16 13 12 12 11 10 9 8 7 6 6 6 7 7 7 7 6 6 6 6 6 5 5 5 5 4 4 5 5 6 6 6 6 6 6 7 8 8 8 9 10
26 27 25 25 25 25 25 21 17 16 13 13 12 11 8 8 9 8 8 8 8 9 9 9 9 9 8 7 7 6 6 7 7 7 6 7 8 8 8 8 8 9 9 10 10 11 11 12 13
Wind_Direction
64 61 56 49 45 44 43 45 49 49 50 48 44 42 47 50 47 51 50 49 55 59 62 64 72 72 68 71 82 89 112 140 153 164 148 140 152 153 153 148 143 150 151 151 153 157 162 161 160
62 59 54 48 43 42 42 44 49 49 49 48 46 46 50 52 52 53 54 52 54 57 57 59 62 63 63 71 83 92 98 118 131 148 158 131 147 154 153 155 147 150 154 154 159 160 156 161 159
62 59 51 47 43 40 40 42 45 47 49 49 49 48 52 56 59 57 58 58 58 53 51 55 58 56 52 53 73 96 96 111 122 135 140 133 141 150 150 156 155 151 153 156 163 162 158 156 155
60 59 52 46 41 42 43 44 45 45 46 48 50 49 52 55 59 58 60 63 61 57 51 51 54 55 55 53 66 89 99 115 130 132 130 136 142 146 148 156 157 156 157 151 155 158 153 154 151
56 53 48 43 42 42 43 45 45 41 43 47 52 52 51 54 55 54 56 59 58 56 51 50 55 57 60 60 71 90 95 100 120 137 134 137 141 149 152 156 154 156 155 153 147 156 162 156 154
53 50 41 39 42 42 45 47 49 43 42 46 51 53 49 50 52 53 55 56 54 54 50 48 51 56 66 70 71 90 90 86 102 132 135 129 133 140 145 150 153 153 148 146 151 159 162 155 149
54 50 40 38 40 41 43 45 49 46 44 45 49 52 50 49 49 50 55 55 53 52 49 45 49 54 61 68 77 95 93 90 97 116 133 127 128 135 139 145 149 145 145 141 148 149 151 150 150
52 49 40 42 42 44 44 44 46 46 44 45 48 50 50 51 50 49 50 51 51 49 47 50 51 52 60 71 76 89 101 102 97 112 125 131 132 140 138 140 141 142 141 144 145 142 139 142 146
48 44 41 45 45 45 45 44 46 45 43 45 47 47 48 52 52 51 50 49 51 48 47 49 53 56 64 73 82 89 98 103 104 111 121 128 133 136 137 135 137 135 137 140 143 141 144 141 140
50 45 46 48 46 45 45 45 46 45 45 45 46 47 48 51 51 52 53 52 51 50 50 53 60 65 71 84 87 90 97 105 110 111 114 119 124 126 131 128 133 137 139 139 145 149 150 150 142
56 47 48 49 47 46 46 46 46 46 45 45 46 46 47 49 50 51 53 55 54 53 56 58 62 67 77 85 90 90 93 104 112 114 116 120 120 120 126 127 127 134 137 135 136 141 145 150 152
66 54 51 49 50 49 49 49 48 47 45 44 44 46 48 48 48 48 51 56 57 58 59 60 62 67 70 76 86 94 95 103 111 112 118 123 122 122 127 134 130 131 136 139 138 137 142 148 152
70 58 56 54 51 51 51 52 49 46 45 45 43 44 46 47 48 49 51 55 57 59 61 62 64 66 70 72 79 90 94 100 109 113 120 126 130 132 136 134 136 136 138 143 146 139 142 147 149
67 60 52 52 49 50 51 51 48 45 43 44 43 42 44 45 47 49 51 54 56 58 60 60 66 69 72 74 77 88 96 103 110 117 122 127 131 132 134 136 141 143 144 146 145 141 146 146 149
99 76 53 49 48 51 50 50 49 45 42 42 41 40 42 44 47 48 50 54 56 59 62 62 65 70 75 79 82 85 96 103 104 113 123 127 131 135 137 138 141 142 146 151 153 153 157 154 156
121 91 53 36 44 43 44 45 46 44 42 41 40 38 40 42 46 49 52 54 55 58 59 58 60 67 76 81 84 85 89 95 101 108 116 120 132 136 141 144 147 147 143 151 159 164 162 164 172
145 78 44 19 26 31 32 35 37 39 41 40 40 38 40 43 46 49 54 54 56 58 58 56 59 67 75 83 86 89 94 97 97 102 109 111 120 130 138 141 138 137 136 135 145 155 164 170 179
161 158 338 348 2 9 10 14 25 30 37 39 40 38 39 43 45 47 50 52 56 58 58 58 60 67 74 80 84 88 95 99 98 100 106 108 111 125 130 136 131 132 133 130 137 147 153 167 178
194 205 260 314 323 336 344 357 7 28 35 37 37 37 39 42 45 45 48 51 53 54 55 55 61 66 72 77 82 86 90 96 97 98 105 108 107 115 123 131 137 135 129 129 140 145 165 184 194
212 243 262 274 277 289 314 332 350 20 27 33 36 39 40 42 44 44 44 49 53 54 55 54 58 65 72 78 81 82 84 92 101 102 102 105 109 115 112 106 104 111 122 135 143 152 161 182 209
211 249 249 259 262 260 296 312 321 346 14 21 22 30 36 41 45 43 41 42 47 53 55 57 59 62 69 76 80 82 85 89 97 103 107 107 102 98 107 105 100 100 105 113 121 121 129 133 245
221 238 240 265 267 269 278 292 303 320 347 10 15 24 28 35 43 41 37 37 40 44 48 53 57 58 60 65 71 74 79 87 96 102 106 107 104 98 91 95 93 92 92 95 97 92 79 27 324
224 242 252 262 270 265 267 279 297 288 317 345 359 6 17 28 32 34 32 34 37 39 42 47 52 55 56 59 65 69 73 79 92 100 102 103 103 100 91 94 95 93 89 87 78 70 53 23 349
223 238 252 258 269 263 264 277 290 288 301 325 339 345 354 10 21 21 21 23 29 29 32 40 45 46 48 51 57 63 68 75 85 97 103 100 95 92 92 102 97 94 87 84 64 41 27 11 353
223 233 244 251 261 268 266 269 280 283 282 291 312 327 329 352 7 1 1 5 7 10 16 29 34 36 38 41 49 56 64 67 75 90 92 92 89 92 101 102 92 81 63 51 25 7 4 2 352
226 231 238 248 256 263 272 279 288 277 266 275 287 303 303 308 351 350 348 348 345 343 350 360 7 11 17 27 34 35 48 55 55 62 108 96 81 70 30 351 350 335 338 344 342 339 336 334 333
228 231 236 248 255 260 267 273 276 281 273 276 287 297 286 276 302 319 331 331 327 319 318 322 331 339 345 356 2 7 10 8 357 327 276 240 262 277 287 289 288 298 311 314 313 317 320 319 320
230 232 238 241 249 256 261 267 271 278 278 274 274 277 267 272 286 287 295 297 305 308 306 302 306 310 317 323 324 327 329 328 326 312 290 265 269 283 292 296 296 304 307 306 303 306 311 307 307
229 230 234 239 243 251 259 260 266 271 273 274 276 273 268 282 279 272 272 278 287 288 290 294 295 295 300 303 302 301 302 304 306 308 295 279 275 276 280 287 291 296 298 297 297 297 302 303 301
231 232 235 239 243 249 255 255 258 263 269 270 278 273 262 262 266 264 266 275 275 280 285 287 291 292 291 291 290 291 291 294 293 288 287 284 275 271 272 276 280 285 287 290 291 292 293 294 293
Height
5893 5892 5891 5891 5889 5888 5886 5886 5884 5883 5883 5881 5880 5879 5879 5879 5880 5881 5878 5875 5875 5874 5874 5874 5873 5873 5873 5873 5872 5872 5872 5872 5872 5872 5872 5871 5871 5871 5872 5873 5873 5873 5873 5875 5876 5878 5879 5880 5882
5895 5894 5894 5893 5890 5889 5888 5887 5886 5885 5884 5882 5881 5880 5880 5879 5879 5878 5877 5876 5876 5875 5875 5874 5874 5873 5873 5873 5872 5872 5872 5872 5872 5872 5872 5871 5871 5872 5872 5873 5873 5873 5874 5875 5876 5878 5879 5881 5882
5897 5897 5897 5894 5892 5891 5890 5888 5887 5886 5885 5884 5883 5881 5881 5880 5880 5879 5878 5877 5876 5876 5875 5875 5874 5874 5873 5873 5873 5872 5872 5872 5872 5872 5872 5871 5872 5872 5872 5873 5873 5874 5874 5875 5877 5878 5879 5881 5883
5900 5899 5898 5896 5894 5893 5891 5890 5889 5887 5886 5885 5884 5882 5882 5881 5880 5879 5878 5877 5877 5876 5876 5875 5875 5874 5874 5873 5873 5873 5873 5872 5872 5872 5872 5872 5872 5872 5873 5873 5874 5875 5875 5876 5878 5879 5880 5882 5884
5902 5901 5899 5897 5896 5895 5893 5892 5891 5889 5888 5886 5885 5884 5883 5882 5880 5880 5879 5878 5877 5877 5876 5876 5875 5874 5874 5873 5873 5873 5873 5873 5873 5873 5873 5873 5873 5873 5873 5874 5875 5876 5877 5878 5879 5880 5881 5883 5884
5905 5902 5902 5900 5899 5897 5896 5895 5893 5891 5889 5888 5886 5885 5884 5882 5881 5880 5879 5878 5878 5877 5876 5876 5875 5875 5874 5874 5873 5873 5873 5873 5873 5873 5874 5873 5873 5873 5874 5875 5877 5878 5878 5879 5880 5881 5883 5883 5884
5907 5904 5903 5903 5901 5899 5898 5896 5895 5893 5891 5889 5888 5886 5885 5883 5882 5881 5880 5879 5878 5878 5877 5876 5875 5875 5874 5874 5874 5874 5874 5874 5874 5874 5874 5874 5875 5875 5875 5876 5878 5879 5879 5880 5882 5882 5883 5884 5885
5908 5907 5906 5905 5904 5902 5900 5898 5897 5895 5893 5891 5889 5888 5886 5885 5883 5882 5881 5880 5879 5878 5877 5877 5876 5875 5875 5875 5875 5875 5875 5875 5876 5876 5875 5875 5876 5877 5878 5879 5880 5880 5881 5882 5883 5884 5884 5885 5886
5910 5910 5909 5908 5907 5905 5902 5901 5899 5896 5894 5893 5891 5889 5888 5886 5885 5883 5882 5881 5880 5879 5878 5877 5876 5876 5876 5875 5875 5875 5875 5876 5877 5877 5877 5877 5877 5878 5879 5880 5881 5882 5883 5883 5884 5885 5886 5887 5888
5912 5913 5912 5910 5909 5907 5905 5903 5901 5899 5897 5895 5893 5891 5889 5888 5886 5885 5883 5882 5881 5880 5879 5878 5877 5877 5876 5876 5876 5876 5876 5877 5877 5878 5878 5879 5879 5880 5881 5882 5882 5883 5884 5885 5885 5886 5888 5889 5890
5914 5915 5914 5912 5911 5909 5908 5906 5904 5901 5899 5898 5895 5893 5891 5889 5888 5887 5885 5884 5882 5881 5880 5879 5878 5878 5877 5877 5877 5877 5877 5877 5878 5879 5879 5880 5881 5881 5883 5883 5884 5884 5885 5886 5887 5888 5888 5889 5890
5916 5916 5915 5914 5913 5912 5910 5909 5907 5904 5903 5900 5897 5895 5893 5892 5890 5888 5886 5885 5884 5882 5881 5880 5880 5879 5879 5878 5878 5877 5878 5878 5879 5879 5880 5881 5882 5883 5884 5885 5885 5885 5886 5887 5888 5889 5890 5890 5891
5917 5917 5916 5915 5915 5913 5912 5911 5909 5907 5905 5902 5899 5897 5896 5894 5892 5890 5888 5886 5885 5884 5883 5882 5881 5881 5880 5879 5879 5879 5879 5880 5880 5881 5882 5883 5884 5884 5885 5886 5886 5887 5887 5888 5889 5890 5891 5891 5892
5918 5918 5917 5917 5916 5915 5914 5912 5911 5909 5907 5904 5902 5900 5898 5896 5893 5891 5889 5888 5886 5885 5884 5883 5882 5882 5881 5881 5881 5881 5881 5881 5882 5882 5883 5884 5885 5886 5886 5886 5887 5888 5889 5889 5890 5890 5891 5892 5892
5918 5918 5918 5918 5917 5916 5915 5915 5913 5911 5909 5906 5904 5902 5900 5898 5895 5893 5891 5889 5888 5887 5886 5885 5884 5883 5883 5882 5882 5882 5883 5883 5883 5884 5884 5885 5885 5886 5887 5888 5888 5889 5889 5889 5890 5891 5891 5892 5892
5918 5918 5918 5918 5917 5917 5918 5916 5915 5912 5910 5908 5906 5904 5902 5900 5897 5895 5893 5891 5890 5888 5887 5886 5885 5884 5884 5884 5884 5884 5884 5884 5884 5885 5885 5885 5886 5887 5887 5888 5888 5889 5890 5890 5890 5890 5891 5891 5892
5917 5918 5918 5918 5917 5917 5917 5916 5915 5914 5912 5910 5908 5906 5904 5902 5900 5898 5896 5894 5892 5891 5889 5888 5887 5886 5885 5885 5885 5885 5885 5886 5886 5886 5886 5886 5886 5887 5888 5888 5889 5889 5890 5890 5891 5891 5891 5891 5892
5917 5918 5918 5918 5917 5917 5916 5916 5916 5915 5913 5911 5910 5908 5906 5904 5902 5900 5898 5896 5894 5892 5891 5890 5889 5888 5887 5887 5887 5887 5886 5887 5887 5887 5887 5888 5887 5888 5888 5889 5889 5890 5890 5890 5890 5891 5891 5891 5891
5916 5917 5918 5918 5917 5916 5915 5915 5916 5915 5914 5912 5910 5909 5908 5906 5904 5902 5900 5898 5896 5895 5893 5892 5891 5890 5889 5889 5888 5888 5888 5888 5888 5888 5888 5889 5889 5889 5889 5889 5890 5890 5890 5890 5890 5891 5891 5891 5891
5914 5915 5916 5917 5916 5915 5915 5915 5915 5914 5914 5913 5911 5910 5909 5907 5906 5904 5902 5900 5899 5897 5896 5894 5893 5892 5891 5891 5890 5890 5889 5889 5889 5889 5890 5890 5890 5890 5890 5890 5890 5890 5890 5890 5891 5891 5891 5891 5890
5912 5914 5915 5915 5914 5914 5914 5914 5914 5914 5913 5913 5912 5910 5909 5908 5906 5905 5904 5902 5901 5899 5898 5896 5895 5894 5893 5892 5892 5891 5891 5891 5891 5891 5891 5891 5890 5890 5890 5890 5890 5890 5890 5890 5890 5890 5890 5890 5890
5910 5912 5913 5913 5913 5913 5914 5913 5913 5913 5913 5912 5911 5910 5909 5908 5907 5906 5905 5904 5902 5901 5899 5898 5897 5895 5894 5894 5893 5893 5892 5892 5892 5892 5892 5891 5891 5891 5891 5891 5890 5890 5890 5890 5890 5890 5889 5889 5889
5908 5910 5910 5911 5910 5911 5912 5912 5912 5911 5911 5911 5910 5910 5909 5908 5907 5906 5906 5904 5903 5902 5901 5899 5898 5897 5896 5895 5895 5894 5894 5893 5893 5892 5892 5892 5892 5892 5891 5891 5891 5891 5890 5890 5890 5889 5889 5888 5888
5906 5907 5907 5908 5908 5909 5910 5910 5910 5909 5910 5909 5909 5909 5908 5907 5907 5907 5906 5904 5904 5903 5902 5900 5899 5899 5898 5897 5896 5895 5895 5894 5893 5893 5893 5892 5892 5892 5892 5892 5891 5891 5891 5890 5890 5889 5888 5887 5887
5902 5904 5904 5905 5905 5907 5908 5907 5908 5908 5907 5907 5907 5907 5906 5906 5906 5906 5905 5904 5904 5903 5902 5901 5900 5899 5899 5898 5897 5896 5895 5894 5894 5893 5893 5892 5892 5892 5892 5891 5891 5891 5890 5890 5889 5888 5888 5887 5886
5898 5900 5902 5903 5903 5904 5905 5905 5906 5906 5905 5905 5904 5904 5904 5904 5904 5904 5904 5904 5903 5903 5902 5901 5900 5899 5899 5898 5897 5896 5895 5895 5894 5893 5893 5892 5892 5892 5891 5891 5890 5890 5889 5889 5888 5887 5887 5886 5885
5893 5895 5898 5899 5900 5900 5901 5902 5902 5902 5903 5903 5902 5902 5902 5902 5902 5902 5903 5903 5902 5901 5901 5900 5899 5899 5898 5897 5896 5896 5895 5894 5894 5893 5892 5892 5891 5890 5890 5889 5889 5888 5888 5887 5887 5886 5885 5884 5883
5889 5892 5893 5894 5895 5895 5896 5897 5899 5899 5900 5900 5900 5900 5900 5900 5900 5900 5900 5901 5901 5900 5899 5899 5898 5898 5897 5896 5895 5895 5894 5893 5893 5892 5891 5890 5890 5889 5889 5888 5888 5887 5886 5886 5885 5884 5883 5882 5881
5884 5887 5887 5889 5890 5891 5892 5895 5895 5896 5896 5896 5895 5896 5896 5897 5898 5898 5898 5898 5898 5897 5897 5897 5897 5896 5896 5895 5894 5893 5892 5892 5891 5890 5890 5889 5888 5888 5887 5886 5886 5885 5884 5883 5882 5881 5881 5879 5878
5879 5881 5883 5884 5886 5887 5887 5892 5891 5892 5892 5891 5891 5891 5892 5894 5895 5895 5895 5895 5895 5895 5895 5895 5894 5894 5893 5893 5892 5891 5890 5890 5889 5888 5887 5887 5886 5885 5884 5884 5883 5882 5881 5880 5879 5878 5877 5876 5875